Location: Mactaquac Provincial Park
(45.9573°N, 66.8897°W)
Time: 02:32:16
(UTC-03:00)

Cosmos 1867 - Visible Passes

Search period start: 18 April 2014 00:00
Search period end: 28 April 2014 00:00
Orbit: 776 x 801 km, 65.0° (Epoch: 17 April)

Date Brightness Start Highest point End Pass type
(mag) Time Alt. Az. Time Alt. Az. Time Alt. Az.
18 Apr 6.0 02:34:40 11° ESE 02:34:40 11° ESE 02:36:02 10° E visible
18 Apr 3.6 04:15:20 44° SSW 04:17:03 73° ESE 04:22:31 10° NE visible
18 Apr 5.0 05:56:38 10° W 06:01:11 26° NW 06:05:45 10° NNE visible
19 Apr 3.9 03:44:41 50° SSE 03:45:31 55° ESE 03:50:51 10° NE visible
19 Apr 4.7 05:25:21 14° W 05:29:24 32° NW 05:34:17 10° NNE visible
20 Apr 4.3 03:14:00 41° ESE 03:14:01 41° ESE 03:19:07 10° NE visible
20 Apr 4.4 04:54:40 22° W 04:57:40 39° NW 05:02:48 10° NNE visible
21 Apr 4.9 02:43:16 30° E 02:43:16 30° E 02:47:18 10° NE visible
21 Apr 4.1 04:23:55 33° W 04:25:58 49° NW 04:31:17 10° NNE visible
22 Apr 5.4 02:12:29 21° E 02:12:29 21° E 02:15:22 10° ENE visible
22 Apr 3.7 03:53:08 51° WSW 03:54:18 63° NW 03:59:45 10° NNE visible
22 Apr 5.5 05:35:19 10° WNW 05:38:59 18° NNW 05:42:41 10° NNE visible
23 Apr 5.8 01:41:40 15° E 01:41:40 15° E 01:43:12 10° ENE visible
23 Apr 3.4 03:22:19 76° WSW 03:22:41 82° NW 03:28:11 10° NE visible
23 Apr 5.4 05:03:01 10° W 05:07:07 21° NNW 05:11:14 10° NNE visible
24 Apr 3.6 02:51:28 74° E 02:51:28 74° E 02:56:35 10° NE visible
24 Apr 5.2 04:32:07 15° W 04:35:18 25° NW 04:39:47 10° NNE visible
25 Apr 4.1 02:20:34 50° ENE 02:20:34 50° ENE 02:24:56 10° NE visible
25 Apr 4.9 04:01:13 22° W 04:03:30 30° NW 04:08:19 10° NNE visible
25 Apr 6.0 05:46:56 10° NW 05:48:56 12° NNW 05:50:57 10° N visible
26 Apr 4.7 01:49:38 35° ENE 01:49:38 35° ENE 01:53:13 10° NE visible
26 Apr 4.6 03:30:16 32° WNW 03:31:45 37° NW 03:36:50 10° NNE visible
26 Apr 5.9 05:14:24 10° NW 05:16:58 13° NNW 05:19:33 10° N visible
27 Apr 5.2 01:18:39 25° ENE 01:18:39 25° ENE 01:21:26 10° NE visible
27 Apr 4.2 02:59:18 44° WNW 03:00:02 47° NW 03:05:20 10° NNE visible
27 Apr 5.9 04:41:56 10° WNW 04:45:02 15° NNW 04:48:08 10° NNE visible
